Paducah, KY

4:53 AM CDT on September 21, 2017 (GMT -0500)
Barkley Regional

Weather History for KPAH - May, 2014

Change the Weather History Date:

Saturday, May 10, 2014

  Actual Average Record
Temperature  
Mean Temperature 75 °F 66 °F  
Max Temperature 82 °F 76 °F 88 °F (2015)
Min Temperature 68 °F 55 °F 35 °F (1966)
Degree Days  
Heating Degree Days 0 3  
Month to date heating degree days 20 33  
Since 1 July heating degree days 4504 4097  
Cooling Degree Days 10 3  
Month to date cooling degree days 69 24  
Year to date cooling degree days 99 66  
Growing Degree Days 24 (Base 50)    
Moisture  
Dew Point 64 °F    
Average Humidity 70    
Maximum Humidity 81    
Minimum Humidity 58    
Precipitation  
Precipitation T in 0.17 in 2.11 in (1968)
Month to date precipitation 0.23 1.75  
Year to date precipitation 17.53 18.03  
Snow  
Snow 0.00 in 0.00 in 0.00 in (2002)
Month to date snowfall 0.0 0.0  
Since 1 July snowfall 18.5 9.1  
Snow Depth 0.00 in    
Sea Level Pressure  
Sea Level Pressure 29.93 in    
Wind  
Wind Speed 7 mph (SSW)    
Max Wind Speed 13 mph    
Max Gust Speed 19 mph    
Visibility 10 miles    
Events Thunderstorm    
T = Trace of Precipitation, MM = Missing Value Source: NWS Daily Summary

Daily Weather History Graph

Daily Weather History Graph

Search for Another Location

Airport or City:

Trip Planner

Search our weather history database for the weather conditions in past years. The results will help you decide how hot, cold, wet, or windy it might be!

Date:

Astronomy

May. 10, 2014 Rise Set
Actual Time 5:51 AM CDT 7:52 PM CDT
Civil Twilight 5:22 AM CDT 8:20 PM CDT
Nautical Twilight 4:47 AM CDT 8:55 PM CDT
Astronomical Twilight 4:10 AM CDT 9:33 PM CDT
Moon 3:53 PM CDT (5/10) 3:18 AM CDT (5/10)
Length of Visible Light 14h 58m
Length of Day
14h 00m
Waxing Gibbous, 82% of the Moon is Illuminated
May 10
Waxing Gibbous
May 14
Full
May 21
Last Quarter
May 28
New
Jun 5
First Quarter

Hourly Weather History & Observations

Time (CDT) Temp. Heat Index Dew Point Humidity Pressure Visibility Wind Dir Wind Speed Gust Speed Precip Events Conditions
12:53 AM 70.0 °F - 63.0 °F 78% 29.91 in 10.0 mi SW 6.9 mph - N/A   Overcast
1:53 AM 70.0 °F - 63.0 °F 78% 29.91 in 10.0 mi SW 4.6 mph - N/A   Overcast
2:50 AM 69.8 °F - 62.6 °F 78% 29.91 in 10.0 mi SSW 8.1 mph - N/A   Mostly Cloudy
2:53 AM 69.1 °F - 63.0 °F 81% 29.90 in 10.0 mi SSW 9.2 mph - N/A   Mostly Cloudy
3:19 AM 69.1 °F - 63.0 °F 81% 29.90 in 10.0 mi SSW 6.9 mph - N/A   Mostly Cloudy
3:53 AM 69.1 °F - 63.0 °F 81% 29.90 in 10.0 mi SSW 8.1 mph - N/A   Overcast
4:53 AM 69.1 °F - 63.0 °F 81% 29.91 in 10.0 mi SSW 4.6 mph - N/A   Overcast
5:53 AM 68.0 °F - 62.6 °F 83% 29.92 in 10.0 mi South 5.8 mph - N/A   Mostly Cloudy
6:20 AM 68.0 °F - 63.0 °F 84% 29.94 in 10.0 mi South 8.1 mph - N/A   Mostly Cloudy
6:53 AM 68.0 °F - 63.0 °F 84% 29.93 in 10.0 mi SSW 6.9 mph - 0.00 in   Mostly Cloudy
7:22 AM 69.1 °F - 63.0 °F 81% 29.94 in 10.0 mi South 8.1 mph - N/A   Mostly Cloudy
7:42 AM 69.1 °F - 63.0 °F 81% 29.94 in 10.0 mi SW 6.9 mph - N/A   Scattered Clouds
7:53 AM 70.0 °F - 63.0 °F 78% 29.93 in 10.0 mi SSW 8.1 mph - N/A   Clear
8:53 AM 72.0 °F - 64.0 °F 76% 29.96 in 10.0 mi SW 10.4 mph - N/A   Mostly Cloudy
9:53 AM 71.1 °F - 64.0 °F 78% 29.96 in 10.0 mi SSW 6.9 mph - N/A   Overcast
10:53 AM 73.9 °F - 64.9 °F 73% 29.97 in 10.0 mi SSW 8.1 mph - N/A   Mostly Cloudy
11:53 AM 75.0 °F - 64.0 °F 69% 29.96 in 9.0 mi South 8.1 mph - N/A   Mostly Cloudy
12:43 PM 79.0 °F - 64.9 °F 62% 29.96 in 10.0 mi WSW 9.2 mph - N/A   Partly Cloudy
12:53 PM 79.0 °F - 64.9 °F 62% 29.95 in 10.0 mi Variable 5.8 mph - N/A   Mostly Cloudy
1:04 PM 75.0 °F - 64.9 °F 71% 29.96 in 9.0 mi South 9.2 mph - N/A   Mostly Cloudy
1:31 PM 75.9 °F - 68.0 °F 76% 29.96 in 7.0 mi SSW 9.2 mph - 0.00 in   Mostly Cloudy
1:53 PM 78.1 °F - 66.9 °F 68% 29.94 in 7.0 mi SSW 5.8 mph - 0.00 in   Partly Cloudy
2:28 PM 77.0 °F - 66.0 °F 69% 29.95 in 8.0 mi SW 5.8 mph - N/A Thunderstorm Thunderstorm
2:53 PM 77.0 °F - 66.9 °F 71% 29.93 in 8.0 mi South 3.5 mph - N/A Thunderstorm Thunderstorm
2:58 PM 78.1 °F - 66.9 °F 68% 29.94 in 8.0 mi South 4.6 mph - N/A   Partly Cloudy
2:59 PM 78.1 °F - 66.9 °F 68% 29.94 in 8.0 mi Variable 4.6 mph - N/A   Partly Cloudy
3:07 PM 78.1 °F - 66.9 °F 68% 29.94 in 8.0 mi Variable 3.5 mph - N/A Thunderstorm Scattered Clouds
3:22 PM 81.0 °F 81.9 °F 62.1 °F 52% 29.93 in 10.0 mi WSW 10.4 mph - N/A   Partly Cloudy
3:53 PM 80.1 °F 80.9 °F 60.1 °F 50% 29.92 in 10.0 mi SW 5.8 mph - N/A   Clear
4:53 PM 82.0 °F 84.1 °F 66.0 °F 58% 29.91 in 10.0 mi SSW 9.2 mph - N/A   Clear
5:53 PM 81.0 °F 82.7 °F 64.9 °F 58% 29.90 in 10.0 mi South 5.8 mph - N/A   Clear
6:53 PM 80.1 °F 81.7 °F 64.0 °F 58% 29.89 in 10.0 mi South 4.6 mph - N/A   Clear
7:53 PM 75.9 °F - 64.9 °F 69% 29.90 in 10.0 mi SSE 4.6 mph - N/A   Clear
8:53 PM 72.0 °F - 64.9 °F 78% 29.92 in 10.0 mi South 4.6 mph - N/A   Clear
9:53 PM 71.1 °F - 64.9 °F 81% 29.94 in 10.0 mi South 4.6 mph - N/A   Clear
10:53 PM 71.1 °F - 64.9 °F 81% 29.94 in 10.0 mi SSE 6.9 mph - N/A   Clear
11:53 PM 72.0 °F - 64.9 °F 78% 29.94 in 10.0 mi South 8.1 mph - N/A   Clear